Weather History for PACD - December, 2013

Change the Weather History Date:

Friday, December 6, 2013

  Actual Average Record
Temperature  
Mean Temperature 50 °F 32 °F  
Max Temperature 53 °F 37 °F 53 °F (2013)
Min Temperature 47 °F 28 °F 7 °F (1945)
Degree Days  
Heating Degree Days 15 33  
Month to date heating degree days 127 195  
Since 1 July heating degree days 2643 3221  
Cooling Degree Days 0    
Month to date cooling degree days 0  
Year to date cooling degree days 0  
Moisture  
Dew Point 45 °F    
Average Humidity 0    
Maximum Humidity 0    
Minimum Humidity 0    
Precipitation  
Precipitation 0.35 in 0.16 in 1.38 in (1958)
Month to date precipitation 1.58 0.98  
Year to date precipitation 43.70 38.19  
Snow  
Snow 0.00 in 0.40 in 7.50 in (1960)
Month to date snowfall 0.0 2.4  
Since 1 July snowfall 3.6 15.0  
Snow Depth 0.00 in    
Sea Level Pressure  
Sea Level Pressure 29.76 in    
Wind  
Wind Speed 32 mph (SE)    
Max Wind Speed 46 mph    
Max Gust Speed 60 mph    
Visibility 8 miles    
Events Rain    
T = Trace of Precipitation, MM = Missing Value Source: NWS Daily Summary

Daily Weather History Graph

Daily Weather History Graph

Search for Another Location

Airport or City:

Trip Planner

Search our weather history database for the weather conditions in past years. The results will help you decide how hot, cold, wet, or windy it might be!

Date:

Astronomy

Dec. 06, 2013 Rise Set
Actual Time 10:01 AM AKST 5:22 PM AKST
Civil Twilight 9:16 AM AKST 6:07 PM AKST
Nautical Twilight 8:29 AM AKST 6:55 PM AKST
Astronomical Twilight 7:44 AM AKST 7:39 PM AKST
Moon 12:47 PM AKST (12/6) 10:41 PM AKST (12/6)
Length of Visible Light 8h 51m
Length of Day
7h 21m
Waxing Crescent, 20% of the Moon is Illuminated
Dec 6
Waxing Crescent
Dec 9
First Quarter
Dec 17
Full
Dec 25
Last Quarter
Jan 1
New

Hourly Weather History & Observations

Time (AKST) Temp. Windchill Dew Point Humidity Pressure Visibility Wind Dir Wind Speed Gust Speed Precip Events Conditions
12:53 AM 51.1 °F - 48.0 °F 89% 29.70 in 5.0 mi SE 35.7 mph 44.9 mph 0.13 in Rain Rain
1:00 AM 51.8 °F - 48.2 °F 88% 29.70 in 4.0 mi SE 32.2 mph 44.9 mph 0.02 in Rain Rain
1:53 AM 52.0 °F - 48.9 °F 89% 29.68 in 7.0 mi SE 35.7 mph 49.5 mph 0.13 in Rain Light Rain
2:04 AM 51.8 °F - 48.2 °F 88% 29.68 in 2.5 mi SE 35.7 mph 47.2 mph 0.02 in   Overcast
2:13 AM 51.8 °F - 48.2 °F 88% 29.67 in 3.0 mi SE 34.5 mph 49.5 mph 0.05 in   Overcast
2:31 AM 51.8 °F - 48.2 °F 88% 29.67 in 4.0 mi SE 35.7 mph 51.8 mph 0.05 in Rain Light Rain
2:41 AM 51.8 °F - 48.2 °F 88% 29.66 in 5.0 mi SE 38.0 mph 52.9 mph 0.05 in Rain Light Rain
2:49 AM 51.8 °F - 48.2 °F 88% 29.66 in 5.0 mi SE 39.1 mph 50.6 mph 0.07 in Rain Light Rain
2:53 AM 51.1 °F - 48.9 °F 92% 29.67 in 5.0 mi SE 33.4 mph 50.6 mph 0.07 in Rain Light Rain
3:53 AM 52.0 °F - 48.9 °F 89% 29.70 in 10.0 mi SE 26.5 mph 38.0 mph 0.00 in   Overcast
4:18 AM 51.8 °F - 46.4 °F 82% 29.73 in 10.0 mi SE 19.6 mph 34.5 mph N/A   Overcast
4:53 AM 51.1 °F - 46.9 °F 86% 29.75 in 10.0 mi SSE 17.3 mph 27.6 mph N/A   Overcast
5:32 AM 51.8 °F - 46.4 °F 82% 29.76 in 10.0 mi SSE 16.1 mph 24.2 mph N/A   Overcast
5:53 AM 51.1 °F - 46.0 °F 83% 29.77 in 10.0 mi SSE 18.4 mph 28.8 mph N/A   Overcast
6:16 AM 50.0 °F - 46.4 °F 87% 29.77 in 10.0 mi SE 18.4 mph 28.8 mph N/A   Overcast
6:53 AM 50.0 °F - 45.0 °F 83% 29.78 in 10.0 mi SE 28.8 mph 35.7 mph N/A   Overcast
7:24 AM 48.2 °F - 44.6 °F 87% 29.78 in 10.0 mi SE 29.9 mph 39.1 mph N/A   Scattered Clouds
7:53 AM 48.9 °F - 44.1 °F 83% 29.78 in 10.0 mi SE 29.9 mph 39.1 mph N/A   Overcast
8:53 AM 48.0 °F - 45.0 °F 89% 29.78 in 10.0 mi SE 28.8 mph 35.7 mph N/A   Overcast
9:23 AM 48.2 °F - 44.6 °F 87% 29.79 in 10.0 mi SE 25.3 mph 35.7 mph N/A   Overcast
9:53 AM 48.9 °F - 45.0 °F 86% 29.79 in 9.0 mi SE 25.3 mph 39.1 mph N/A   Overcast
10:03 AM 48.2 °F - 44.6 °F 87% 29.78 in 9.0 mi SE 28.8 mph 40.3 mph N/A   Mostly Cloudy
10:23 AM 48.2 °F - 44.6 °F 87% 29.79 in 9.0 mi SE 31.1 mph 36.8 mph N/A   Mostly Cloudy
10:53 AM 48.9 °F - 45.0 °F 86% 29.81 in 8.0 mi ESE 33.4 mph 40.3 mph N/A   Mostly Cloudy
11:00 AM 48.2 °F - 44.6 °F 87% 29.81 in 6.0 mi ESE 26.5 mph 40.3 mph 0.00 in Rain Light Rain
11:23 AM 48.2 °F - 46.4 °F 93% 29.81 in 7.0 mi ESE 29.9 mph 41.4 mph 0.00 in   Overcast
11:53 AM 48.9 °F - 46.0 °F 90% 29.83 in 5.0 mi SE 25.3 mph 35.7 mph 0.00 in Rain Light Rain
12:53 PM 50.0 °F - 46.0 °F 86% 29.83 in 9.0 mi ESE 23.0 mph 35.7 mph 0.01 in Rain Light Rain
1:53 PM 50.0 °F - 45.0 °F 83% 29.81 in 10.0 mi ESE 32.2 mph 40.3 mph 0.00 in   Mostly Cloudy
2:53 PM 48.9 °F - 44.1 °F 83% 29.80 in 9.0 mi ESE 33.4 mph 46.0 mph N/A   Mostly Cloudy
3:37 PM 46.4 °F 36.5 °F 44.6 °F 93% 29.78 in 6.0 mi ESE 34.5 mph 49.5 mph 0.00 in Rain Light Rain
3:53 PM 48.0 °F - 43.0 °F 83% 29.78 in 4.0 mi ESE 35.7 mph 47.2 mph 0.00 in Rain Light Rain
4:15 PM 48.2 °F - 42.8 °F 82% 29.77 in 7.0 mi ESE 39.1 mph 48.3 mph 0.00 in   Overcast
4:53 PM 46.9 °F - 43.0 °F 86% 29.75 in 6.0 mi ESE 38.0 mph 51.8 mph 0.00 in Rain Light Rain
5:46 PM 46.4 °F 35.7 °F 42.8 °F 87% 29.73 in 7.0 mi ESE 41.4 mph 52.9 mph 0.00 in   Overcast
5:53 PM 46.9 °F - 43.0 °F 86% 29.74 in 7.0 mi SE 41.4 mph 52.9 mph 0.00 in   Overcast
6:21 PM 46.4 °F 35.7 °F 42.8 °F 87% 29.74 in 6.0 mi ESE 41.4 mph 56.4 mph N/A   Overcast
6:53 PM 46.9 °F - 43.0 °F 86% 29.75 in 5.0 mi SE 39.1 mph 52.9 mph N/A   Overcast
7:53 PM 46.9 °F - 43.0 °F 86% 29.78 in 8.0 mi SE 38.0 mph 47.2 mph N/A   Overcast
8:53 PM 46.9 °F - 43.0 °F 86% 29.79 in 7.0 mi ESE 34.5 mph 48.3 mph 0.00 in   Overcast
9:53 PM 46.9 °F - 43.0 °F 86% 29.79 in 9.0 mi SE 33.4 mph 51.8 mph 0.00 in   Overcast
10:53 PM 46.9 °F - 43.0 °F 86% 29.81 in 9.0 mi SE 34.5 mph 44.9 mph 0.01 in Rain Light Rain
11:53 PM 46.9 °F - 42.1 °F 83% 29.83 in 7.0 mi SE 34.5 mph 42.6 mph 0.01 in Rain Light Rain